Regional Weather Roundup
Issued by NWS Kansas City/Pleasant Hill, MO

Home | Current Version | Previous Version | Text Only | Print | Product List | Glossary On
Versions: 1 2 3 4 5 6 7 8 9 10 11 12 13 14 15 16 17 18 19 20 21 22 23 24 25 26 27 28 29 30 31 32 33 34 35 36 37 38 39 40 41 42 43 44 45 46 47 48 49 50
464
ASUS43 KEAX 211310
RWREAX

WEATHER ROUNDUP FOR EASTERN KANSAS AND NORTHWEST MISSOURI
NATIONAL WEATHER SERVICE KANSAS CITY/PLEASANT HILL MO
800 AM CDT THU SEP 21 2017

KSZ040-057-103>105-MOZ028-029-037-043-211400-
...KANSAS CITY METROPOLITAN AREA...

CITY           SKY/WX    TMP DP  RH WIND       PRES   REMARKS
K.C. INTL      MOCLDY    76  71  85 S8        29.91R
K.C. DOWNTOWN  PTCLDY    79  72  79 SE8       29.91R
LEES SUMMIT    CLEAR     74  72  93 S9        29.94R
OLATHE - IXD   MOCLDY    76  71  85 S10       29.92R
OLATHE - OJC   PTCLDY    74  71  91 S8        29.92R
LAWRENCE       CLEAR     74  72  93 E5        29.89R

$$

MOZ001>008-011>017-020>025-030>033-038>040-044>046-053-054-211400-
...NORTHERN AND CENTRAL MISSOURI...

CITY           SKY/WX    TMP DP  RH WIND       PRES   REMARKS
ST. JOSEPH     CLEAR     75  73  93 S6        29.89R
MOSBY          MOSUNNY   73  70  88 SE6       29.92R
WARRENSBURG    SUNNY     72  68  88 SE7       29.94R
WHITEMAN AFB   CLOUDY    75  75 100 S8        29.95R
CLINTON        NOT AVBL
SEDALIA        CLOUDY    76  73  91 S8        29.98R
WARSAW         NOT AVBL
CHILLICOTHE      N/A     75  73  93 CALM      29.94R
KIRKSVILLE     CLOUDY    71  67  87 E17G26    30.03R

$$

MOZ041-047>049-056>058-063>065-088>090-097-211400-
...EASTERN AND SOUTHERN MISSOURI...

CITY           SKY/WX    TMP DP  RH WIND       PRES   REMARKS
ST. LOUIS INTL CLOUDY    77  71  82 S5        30.02R
SPIRIT OF STL  CLOUDY    74  72  93 CALM      30.00R
COLUMBIA       SUNNY     74  71  91 SE7       29.99R
JEFFERSON CITY SUNNY     74  70  87 E5        29.98R
ROLLA          SUNNY     74  71  91 S8        30.03R
OSAGE BEACH    SUNNY     72  70  93 S9        30.00R
SPRINGFIELD    SUNNY     73  72  96 SE14      30.00R
BRANSON        MOSUNNY   73  72  94 SE6       30.04R
JOPLIN         SUNNY     75  72  90 SE9       29.96R
WEST PLAINS    SUNNY     71  69  93 SE3       30.07R FOG

$$

IAZ060-094-KSZ022-034>040-054-083-096-NEZ052-066-093-211400-
...KANSAS...SOUTHEAST NEBRASKA AND IOWA...

CITY           SKY/WX    TMP DP  RH WIND       PRES   REMARKS
TOPEKA         CLEAR     75  73  93 E5        29.87R
MANHATTAN      CLEAR     76  72  87 S7        29.83R
EMPORIA        CLEAR     73  70  90 S13       29.87R
CHANUTE        CLEAR     74  70  87 SE13      29.91R
WICHITA        PTCLDY    73  72  96 S12       29.84R
OMAHA          PTCLDY    69  61  75 SE9       29.86R
LINCOLN        MOCLDY    66  60  81 E5        29.84S
FALLS CITY     CLEAR     71  70  96 SE5       29.85R
LAMONI         CLOUDY    71  71 100 E7        29.94R FOG
DES MOINES     CLOUDY    70  68  93 CALM      29.89F

$$





USA.gov is the U.S. government's official web portal to all federal, state and local government web resources and services.